SCP
0 0 0 0 0 0 0 0 0 0 0 0 0 0 0 0 0 0 0 0 1 1 0 0 0 0 0 0 0 0 0 0 0 0 0 0 0 0 0 0 0 0 0
0 0 0 0 0 0 0 0 0 0 0 0 0 0 0 0 0 0 0 0 1 1 0 0 0 0 0 0 0 0 0 0 0 0 0 0 0 0 0 0 0 0 0
1 1 1 0 0 0 0 0 0 0 0 0 0 0 0 0 0 0 0 0 1 1 1 1 1 1 1 1 1 1 1 1 1 0 0 0 0 0 0 0 0 0 0
1 1 1 1 1 1 1 1 0 0 1 1 1 1 1 1 1 1 1 1 1 1 1 1 1 1 1 1 1 1 1 1 1 1 0 0 0 0 0 0 0 0 0
2 1 1 1 1 1 1 1 1 1 1 1 1 1 1 1 1 1 1 1 1 1 1 1 1 1 1 1 1 1 1 1 1 1 1 0 0 0 0 0 0 0 0
2 2 2 1 1 1 1 1 1 1 1 1 1 1 1 1 1 1 1 1 1 1 1 1 1 1 1 1 1 1 1 1 1 1 1 1 1 0 0 0 0 0 0
2 2 2 2 2 2 1 1 1 1 1 1 1 0 0 0 1 1 1 1 1 1 1 1 1 1 1 1 1 1 1 1 1 1 1 1 1 0 0 0 0 0 0
2 2 2 2 2 2 1 1 1 1 1 0 0 0 0 0 0 1 1 1 0 0 1 1 1 1 1 1 1 1 1 1 1 1 1 1 1 0 0 0 0 0 0
2 2 2 2 1 1 1 1 1 1 0 0 0 0 0 0 0 0 0 0 1 1 1 1 1 1 1 1 1 1 1 1 1 1 1 1 1 0 0 0 0 0 0
1 1 1 1 1 1 1 1 0 0 0 0 0 0 1 1 1 0 0 0 1 1 1 1 1 1 1 1 1 1 1 1 1 1 1 1 1 0 0 0 0 0 0
1 1 1 1 1 0 0 0 0 0 0 0 0 0 1 1 1 0 0 0 0 0 1 1 1 1 1 1 1 1 0 0 0 0 0 1 0 0 0 0 0 0 0
1 1 0 0 0 0 0 0 0 0 0 0 0 0 0 0 0 0 0 0 0 0 0 0 1 1 1 1 1 0 0 0 0 0 0 0 0 0 0 0 0 0 0
1 1 0 0 0 0 0 0 0 0 0 0 0 0 0 0 0 0 0 0 0 0 0 0 0 0 0 1 1 0 0 0 0 0 0 0 0 0 0 0 0 0 0
1 1 0 0 0 0 0 0 0 0 0 0 0 0 0 0 0 0 0 0 0 0 0 0 0 0 0 0 0 0 0 0 0 0 0 0 0 0 0 0 0 0 0
0 0 0 0 0 0 0 0 0 0 0 0 0 0 0 0 0 0 0 0 0 0 0 0 0 0 0 0 0 0 0 0 0 0 0 0 0 0 0 0 0 0 0
0 0 0 0 0 0 0 0 0 0 0 0 0 0 0 0 0 0 0 0 0 0 0 0 0 0 0 0 0 0 0 0 0 0 0 0 0 0 0 0 0 0 0
0 0 0 0 0 0 0 0 0 0 0 0 0 0 0 0 0 0 0 0 0 0 0 0 0 0 0 0 0 0 0 0 0 0 0 0 0 0 0 0 0 0 0
0 0 0 0 0 0 0 0 0 0 0 0 0 0 0 0 0 0 0 0 0 0 0 0 0 0 0 0 0 0 0 0 0 0 0 0 0 0 0 0 0 0 0
0 0 0 0 0 0 0 0 0 0 0 0 0 0 0 0 0 0 0 0 0 0 0 0 0 0 0 0 0 0 0 0 0 0 0 0 0 0 0 0 0 0 0
0 0 0 0 0 0 0 0 0 0 0 0 0 0 0 0 0 0 0 0 0 0 0 0 0 0 0 0 0 0 0 0 0 0 0 0 0 0 0 0 0 0 0
0 0 0 0 0 0 0 0 0 0 0 0 0 0 0 0 0 0 0 0 0 0 0 0 0 0 0 0 0 0 0 0 0 0 0 0 0 0 0 0 0 0 0
0 0 0 0 0 0 0 0 0 0 0 0 0 0 0 0 0 0 0 0 0 0 0 0 0 0 0 0 0 0 0 0 0 0 0 0 0 0 0 0 0 0 0
0 0 0 0 0 0 0 0 0 0 0 0 0 0 0 0 0 0 0 0 0 0 0 0 0 0 0 0 0 0 0 0 0 0 0 0 0 0 0 0 0 0 0
0 0 0 0 0 0 0 0 0 0 0 0 0 0 0 0 0 0 0 0 0 0 0 0 0 0 0 0 0 0 0 0 -0 0 0 0 0 0 0 0 0 0 0
0 0 0 0 0 0 0 0 0 0 0 0 0 0 0 0 0 0 0 0 0 0 0 0 0 0 0 0 0 0 0 0 0 0 0 0 0 0 0 0 0 0 0
0 0 0 0 0 0 0 0 0 0 0 0 0 0 0 0 0 0 0 0 0 0 0 0 0 -0 -0 0 0 0 0 0 0 0 0 0 0 0 0 0 0 0 0
Wind_Speed
7 6 5 5 7 6 6 7 7 6 7 8 8 9 8 9 9 8 5 9 12 13 14 13 13 13 13 13 13 13 13 12 12 13 15 16 16 16 16 16 17 17 17
7 6 7 7 7 7 7 6 8 7 7 6 8 9 9 10 9 9 9 8 14 14 14 14 14 13 13 13 13 13 13 12 12 12 13 13 14 14 15 15 16 18 18
9 8 8 8 8 7 7 8 9 7 8 8 9 9 9 9 9 9 10 9 8 13 16 15 15 14 14 14 14 13 13 13 13 13 12 12 13 13 13 13 15 17 19
11 9 9 9 8 7 7 7 8 8 8 8 8 8 9 8 11 10 10 9 8 8 11 16 15 14 15 15 15 14 14 14 14 14 13 13 13 13 13 12 13 15 19
12 10 9 8 8 7 7 8 7 7 8 9 9 9 10 10 10 11 12 12 11 10 10 9 15 15 16 16 16 15 14 14 14 15 15 14 14 14 13 13 13 14 18
12 10 8 9 9 7 7 7 7 7 8 9 10 10 11 12 11 12 13 13 12 13 13 12 10 13 17 16 16 16 16 15 15 15 16 16 15 15 14 14 14 14 17
9 8 8 7 7 7 8 9 8 9 9 8 9 11 11 12 12 10 11 11 12 12 12 11 11 10 9 17 17 16 16 16 16 16 16 16 16 15 15 15 15 15 17
6 6 8 6 6 5 7 8 7 7 7 6 7 9 9 8 8 8 8 8 9 8 9 10 11 10 10 8 11 17 17 17 17 17 17 17 16 15 15 16 16 16 18
5 4 5 5 5 7 7 7 6 7 7 6 6 6 7 7 6 5 6 7 7 7 7 6 8 9 10 9 8 14 16 15 16 18 17 16 15 15 15 15 16 17 18
5 5 5 5 6 7 6 7 6 6 7 6 5 6 8 7 7 7 7 6 6 7 7 6 6 6 8 8 7 5 10 12 13 15 14 13 13 13 14 15 16 17 18
6 6 6 6 7 7 6 5 4 6 5 6 5 5 6 7 9 7 8 7 7 5 4 5 4 4 4 6 5 7 8 10 10 11 11 11 11 12 13 14 17 18 19
7 9 8 8 8 6 6 6 5 6 5 5 6 5 5 5 5 5 7 7 7 5 4 3 3 2 2 3 4 1 5 8 9 10 9 9 10 12 13 16 18 20 21
7 8 8 7 7 6 6 6 6 5 5 5 5 4 3 3 4 5 5 6 6 4 3 1 1 2 2 3 2 1 5 7 7 8 8 8 10 12 14 16 18 20 21
6 7 7 7 7 7 6 6 6 4 4 3 2 2 1 2 3 3 3 5 5 3 2 2 2 3 4 4 3 5 2 5 5 6 7 8 9 11 13 15 17 18 18
5 6 6 6 6 5 5 5 4 3 3 2 1 1 1 1 2 2 3 4 5 5 3 2 3 4 5 4 3 4 3 4 5 5 6 7 9 10 12 13 15 16 17
4 5 5 5 5 5 5 5 4 2 2 1 1 1 2 2 2 3 3 3 4 5 5 3 3 5 6 5 4 5 3 3 6 5 5 6 8 9 10 11 12 14 15
4 4 4 4 5 5 4 4 3 3 2 3 3 3 4 4 4 4 3 3 3 4 6 5 3 4 4 5 4 4 3 3 3 5 4 5 7 8 8 9 9 11 13
3 4 4 5 5 4 4 4 4 4 5 6 5 5 5 4 4 5 5 5 4 4 6 7 6 4 5 5 5 4 3 3 3 3 3 4 5 6 7 6 5 7 11
3 4 5 5 5 5 5 6 7 7 7 6 6 5 5 5 6 6 6 6 5 5 4 5 5 4 4 5 6 4 4 3 3 3 3 2 3 4 5 4 1 4 9
5 6 6 6 6 7 7 8 8 8 7 7 7 7 7 8 8 7 5 6 6 6 5 4 5 5 5 7 7 6 5 3 3 2 1 1 1 1 2 2 2 4 8
6 6 7 7 7 7 7 8 9 9 9 8 8 8 9 8 8 8 8 8 8 7 6 6 7 7 8 8 8 7 7 5 1 0 1 1 1 1 0 2 3 5 8
7 7 8 8 8 8 9 8 8 10 9 9 8 7 8 7 6 6 7 9 10 9 9 8 8 8 8 8 7 7 7 6 4 4 2 0 1 1 1 1 6 7 8
8 8 8 9 10 9 8 8 7 8 9 8 8 7 8 8 7 7 5 5 8 7 6 8 10 10 10 9 9 8 7 6 4 4 3 3 3 2 2 3 7 8 8
7 7 8 10 10 8 7 7 5 8 9 8 8 8 8 9 9 8 7 8 9 9 9 9 9 9 9 9 9 6 3 2 3 4 3 3 3 3 3 2 4 5 7
8 8 8 9 10 8 5 3 1 7 7 7 7 8 7 8 11 11 5 6 6 5 5 3 3 3 3 7 11 9 9 6 5 5 4 3 2 1 2 3 2 1 4
8 8 8 8 9 8 5 2 2 4 5 5 5 6 10 9 10 12 7 6 6 6 6 4 2 3 5 7 9 11 10 9 7 6 7 4 3 2 1 1 1 0 2
Wind_Direction
237 241 246 253 261 259 248 243 255 270 274 269 272 271 273 274 268 266 263 219 224 235 244 250 251 246 241 238 234 232 231 230 227 225 225 227 229 231 231 230 226 218 212
243 246 244 246 254 258 265 273 269 268 267 273 273 273 272 272 267 263 260 240 214 222 235 244 247 246 240 235 232 229 228 228 225 222 222 224 227 230 232 232 227 217 211
236 241 250 248 249 253 253 255 264 268 265 264 265 270 267 266 269 268 267 269 254 217 218 231 238 239 236 232 230 226 223 221 220 220 220 222 225 228 230 231 227 218 210
240 244 251 253 254 255 256 258 262 266 267 270 273 278 279 273 264 262 259 252 257 263 227 216 225 229 230 229 228 226 222 219 218 219 220 223 226 228 228 228 225 220 212
241 244 252 259 263 262 262 265 262 267 275 277 277 270 269 270 270 264 262 261 253 251 258 221 208 219 224 225 224 223 222 219 218 218 221 224 227 227 226 226 223 220 213
251 251 252 256 260 263 264 262 269 266 273 277 280 282 277 272 268 265 263 260 254 250 248 250 229 215 215 220 220 221 223 221 218 218 221 225 228 227 224 224 223 220 214
274 269 265 264 260 258 264 271 273 272 269 277 280 278 271 262 257 258 260 266 265 261 256 247 244 241 210 207 215 220 223 223 220 219 222 225 228 227 224 224 222 219 214
280 275 273 266 262 267 265 267 266 279 283 276 279 290 286 274 248 246 252 257 268 271 264 248 237 236 245 228 205 209 220 224 224 223 224 226 228 229 227 226 224 219 214
244 236 250 259 266 262 255 254 258 255 266 270 262 275 291 300 323 276 263 264 266 271 268 265 243 234 230 237 230 201 210 220 226 228 228 229 230 231 231 230 228 222 216
217 221 219 230 245 249 246 245 245 256 258 268 262 251 261 281 282 289 272 263 263 263 266 260 251 233 231 235 235 246 208 220 227 233 235 239 239 235 233 234 236 229 219
198 209 215 217 226 235 237 247 247 257 261 272 280 278 273 266 256 264 282 288 284 274 262 247 245 246 236 241 244 237 206 220 226 231 237 245 250 250 246 246 246 240 227
194 200 205 216 222 225 221 230 244 245 265 279 281 281 282 281 283 273 281 290 290 288 290 292 280 283 272 262 252 231 213 222 225 230 233 241 253 259 260 257 252 244 233
195 197 196 210 218 218 221 232 236 259 262 271 278 286 295 301 304 298 291 296 295 299 293 283 17 31 3 326 334 342 224 219 220 224 231 241 252 260 262 259 254 247 236
192 186 195 210 218 217 221 227 241 237 250 259 279 312 321 346 343 339 325 316 310 306 311 357 15 31 7 345 2 298 214 184 204 223 238 249 255 259 262 259 252 245 236
176 185 194 203 208 212 222 231 229 235 240 236 205 199 295 319 308 332 337 338 331 330 340 0 343 357 341 335 317 288 265 169 207 228 243 256 264 269 269 263 250 236 227
168 178 184 186 191 201 209 224 204 186 212 116 88 46 2 350 325 313 321 323 320 318 314 327 322 325 327 320 306 291 277 191 216 228 251 267 276 280 284 278 256 230 216
172 172 176 177 182 189 192 199 180 157 128 88 65 52 39 15 353 344 339 324 316 308 299 304 292 301 302 310 312 287 266 246 227 217 250 277 288 295 299 292 264 226 204
162 160 168 166 165 164 168 157 128 103 87 76 63 54 39 32 17 5 352 352 345 326 307 312 316 317 311 315 310 284 256 246 245 210 235 286 305 313 316 310 272 215 188
146 147 150 146 141 136 124 106 96 86 77 67 58 53 44 33 23 20 2 2 348 340 331 318 332 344 336 344 332 317 269 244 233 203 212 256 311 330 339 336 302 183 169
142 135 132 128 124 117 108 102 96 89 82 76 66 55 43 36 24 9 9 10 359 352 12 10 19 17 10 3 358 345 327 281 240 219 171 25 15 343 9 22 84 136 151
136 131 128 122 115 108 99 100 101 96 92 86 75 67 58 51 42 20 16 14 13 16 27 32 36 30 22 10 4 349 337 329 294 257 209 198 267 293 137 126 113 126 138
134 132 125 116 105 92 79 76 94 98 91 84 78 74 81 63 79 77 54 42 28 23 24 22 36 31 22 11 0 3 1 2 5 358 329 331 354 343 345 42 124 132 137
135 128 123 114 105 98 88 80 74 96 88 77 71 60 56 54 33 60 93 117 72 50 20 19 38 21 17 11 357 14 32 34 15 341 354 31 11 8 12 66 132 148 151
138 134 130 123 119 113 103 98 94 98 91 83 74 68 64 55 32 11 54 63 62 51 36 39 40 32 24 2 350 357 4 79 77 41 25 42 15 13 17 40 133 168 176
144 144 139 137 132 131 132 123 130 113 105 92 77 58 48 57 19 351 34 55 56 65 101 83 15 353 351 4 358 1 3 6 38 54 33 35 24 13 23 24 56 178 205
148 146 138 143 142 139 139 144 272 135 120 118 109 101 68 39 18 1 18 35 36 21 14 37 48 25 27 35 28 16 5 3 10 34 28 11 24 35 53 34 20 78 212